User: anonymous   Login
Location: Ottawa
(45.4167°N, 75.7000°W)
Time: 04:14:46
(UTC-04:00)
Language:

Vanguard 2 - Orbit

View from above orbital plane
View from above orbital plane
View from above satellite
View from above satellite

Ground track
Ground track

The orbit data is extracted from the following two-line orbital elements,

1 00011U 59001A   18229.01302679 -.00000000  00000-0  52986-5 0  9993
2 00011  32.8676  52.2603 1466717  67.0308 307.8118 11.85533638537130
Epoch (UTC): 17 August 2018 00:18:45
Eccentricity: 0.1466717
inclination: 32.8676°
perigee height: 554 km
apogee height: 2938 km
right ascension of ascending node: 52.2603°
argument of perigee: 67.0308°
revolutions per day: 11.85533638
mean anomaly at epoch: 307.8118°
orbit number at epoch: 53713

The dashed part of the orbit path shows where the satellite is in the earth's shadow,  

DLR